When you browse on this site, cookies collect data to enhance your experience and personalize the content and advertising you see.
Visit our Privacy Policy to learn more. By continuing to use the site, you agree to this use of cookies and data.
  • In Hungary
  • List of Countries
  • For 7 days
  • Water Temperature
  • Satellite Maps
  • Weather Map
  • News
  • Weather Widgets
  • user-avatar
    Login

    Hourly Weather Dobrusevo

    Today, 22 February, Friday

    Time Temperature Precipitation Wind Pressure Humidity
    00:00 +4°C° 0 mm 1 mps 709 mmHg 70%
    01:00 +4°C° 0 mm 1 mps 709 mmHg 69%
    02:00 +3°C° 0 mm 0 mps 708 mmHg 71%
    03:00 +3°C° 0 mm 0 mps 708 mmHg 72%
    04:00 +2°C° 0 mm 0 mps 708 mmHg 73%
    05:00 +3°C° 0 mm 0 mps 707 mmHg 74%
    06:00 +3°C° 0 mm 0 mps 707 mmHg 74%
    07:00 +4°C° 0 mm 0 mps 707 mmHg 72%
    08:00 +6°C° 0 mm 1 mps 707 mmHg 67%
    09:00 +8°C° 0 mm 1 mps 707 mmHg 62%
    10:00 +9°C° 0 mm 1 mps 706 mmHg 57%
    11:00 +9°C° 0.2 mm 1 mps 706 mmHg 57%
    12:00 +9°C° 0.2 mm 1 mps 705 mmHg 58%
    13:00 +9°C° 0.2 mm 1 mps 705 mmHg 58%
    14:00 +9°C° 0.2 mm 1 mps 704 mmHg 60%
    15:00 +9°C° 0.2 mm 1 mps 704 mmHg 62%
    16:00 +8°C° 0.2 mm 1 mps 704 mmHg 64%
    17:00 +8°C° 0.1 mm 1 mps 704 mmHg 68%
    18:00 +7°C° 0.1 mm 1 mps 704 mmHg 73%
    19:00 +6°C° 0.1 mm 1 mps 704 mmHg 77%
    20:00 +6°C° 0.1 mm 1 mps 703 mmHg 80%
    21:00 +5°C° 0.1 mm 1 mps 703 mmHg 83%
    22:00 +5°C° 0.1 mm 1 mps 703 mmHg 86%
    23:00 +3°C° 0.2 mm 3 mps 703 mmHg 86%

    Tomorrow, 23 February, Saturday

    Time Temperature Precipitation Wind Pressure Humidity
    00:00 +1°C° 0.2 mm 4 mps 703 mmHg 86%
    01:00 +1°C° 0.2 mm 5 mps 703 mmHg 86%
    02:00 -1°C° 0.1 mm 5 mps 703 mmHg 79%
    03:00 -4°C° 0.1 mm 5 mps 703 mmHg 72%
    04:00 -6°C° 0.1 mm 5 mps 703 mmHg 66%
    05:00 -6°C° 0.1 mm 5 mps 703 mmHg 68%
    06:00 -7°C° 0.1 mm 5 mps 704 mmHg 70%
    07:00 -7°C° 0.1 mm 5 mps 704 mmHg 73%
    08:00 -7°C° 0.5 mm 5 mps 705 mmHg 75%
    09:00 -6°C° 0.5 mm 6 mps 705 mmHg 77%
    10:00 -6°C° 0.5 mm 6 mps 706 mmHg 79%
    11:00 -5°C° 0.3 mm 6 mps 707 mmHg 77%
    12:00 -5°C° 0.3 mm 5 mps 707 mmHg 76%
    13:00 -5°C° 0.3 mm 5 mps 708 mmHg 75%
    14:00 -5°C° 0.2 mm 5 mps 708 mmHg 74%
    15:00 -5°C° 0.2 mm 5 mps 709 mmHg 74%
    16:00 -4°C° 0.2 mm 4 mps 709 mmHg 74%
    17:00 -4°C° 0.1 mm 4 mps 710 mmHg 74%
    18:00 -5°C° 0.1 mm 4 mps 710 mmHg 75%
    19:00 -5°C° 0.1 mm 4 mps 711 mmHg 76%
    20:00 -6°C° 0 mm 3 mps 711 mmHg 76%
    21:00 -6°C° 0 mm 3 mps 712 mmHg 75%
    22:00 -7°C° 0 mm 3 mps 712 mmHg 75%
    23:00 -7°C° 0 mm 3 mps 712 mmHg 75%

    Day after tomorrow, 24 February, Sunday

    Time Temperature Precipitation Wind Pressure Humidity
    00:00 -8°C° 0 mm 3 mps 712 mmHg 75%
    01:00 -8°C° 0 mm 3 mps 712 mmHg 75%
    02:00 -8°C° 0 mm 3 mps 712 mmHg 76%
    03:00 -8°C° 0 mm 3 mps 712 mmHg 77%
    04:00 -8°C° 0 mm 3 mps 712 mmHg 77%
    05:00 -8°C° 0 mm 3 mps 713 mmHg 77%
    06:00 -8°C° 0 mm 3 mps 713 mmHg 76%
    07:00 -8°C° 0 mm 3 mps 713 mmHg 76%
    08:00 -7°C° 0 mm 3 mps 713 mmHg 71%
    09:00 -5°C° 0 mm 3 mps 714 mmHg 66%
    10:00 -4°C° 0 mm 3 mps 714 mmHg 60%
    11:00 -2°C° 0 mm 3 mps 714 mmHg 59%
    12:00 -1°C° 0 mm 3 mps 714 mmHg 57%
    13:00 0°C° 0 mm 3 mps 713 mmHg 56%
    14:00 0°C° 0 mm 3 mps 713 mmHg 56%
    15:00 0°C° 0 mm 3 mps 713 mmHg 57%
    16:00 0°C° 0 mm 3 mps 713 mmHg 58%
    17:00 -1°C° 0 mm 2 mps 713 mmHg 62%
    18:00 -2°C° 0 mm 2 mps 714 mmHg 67%
    19:00 -3°C° 0 mm 2 mps 714 mmHg 72%
    20:00 -4°C° 0 mm 2 mps 714 mmHg 73%
    21:00 -4°C° 0 mm 2 mps 715 mmHg 75%
    22:00 -5°C° 0 mm 2 mps 715 mmHg 76%
    23:00 -5°C° 0 mm 2 mps 715 mmHg 77%

    25 February, Monday

    Time Temperature Precipitation Wind Pressure Humidity
    00:00 -5°C° 0 mm 2 mps 715 mmHg 77%
    01:00 -6°C° 0 mm 2 mps 715 mmHg 78%
    02:00 -6°C° 0 mm 2 mps 715 mmHg 78%
    03:00 -6°C° 0 mm 2 mps 714 mmHg 77%
    04:00 -6°C° 0 mm 2 mps 714 mmHg 77%
    05:00 -6°C° 0 mm 2 mps 714 mmHg 75%
    06:00 -6°C° 0 mm 2 mps 714 mmHg 72%
    07:00 -6°C° 0 mm 2 mps 715 mmHg 70%
    08:00 -4°C° 0 mm 2 mps 714 mmHg 62%
    09:00 -2°C° 0 mm 3 mps 714 mmHg 53%
    10:00 -1°C° 0 mm 3 mps 714 mmHg 45%
    11:00 0°C° 0 mm 3 mps 714 mmHg 42%
    12:00 +1°C° 0 mm 3 mps 713 mmHg 39%
    13:00 +2°C° 0 mm 3 mps 713 mmHg 37%
    14:00 +2°C° 0 mm 3 mps 712 mmHg 40%
    15:00 +2°C° 0 mm 3 mps 712 mmHg 43%
    16:00 +2°C° 0 mm 3 mps 712 mmHg 46%
    17:00 0°C° 0 mm 3 mps 712 mmHg 53%
    18:00 -1°C° 0 mm 2 mps 712 mmHg 60%
    19:00 -3°C° 0 mm 2 mps 712 mmHg 67%
    20:00 -3°C° 0 mm 2 mps 712 mmHg 68%
    21:00 -3°C° 0 mm 2 mps 712 mmHg 69%
    22:00 -3°C° 0 mm 2 mps 712 mmHg 70%
    23:00 -3°C° 0 mm 2 mps 712 mmHg 70%

    26 February, Tuesday

    Time Temperature Precipitation Wind Pressure Humidity
    00:00 -4°C° 0 mm 2 mps 711 mmHg 70%
    01:00 -4°C° 0 mm 2 mps 711 mmHg 70%
    02:00 -4°C° 0 mm 2 mps 711 mmHg 70%
    03:00 -4°C° 0 mm 2 mps 711 mmHg 69%
    04:00 -4°C° 0 mm 2 mps 710 mmHg 68%
    05:00 -4°C° 0 mm 2 mps 710 mmHg 67%
    06:00 -3°C° 0 mm 2 mps 710 mmHg 65%
    07:00 -3°C° 0 mm 2 mps 710 mmHg 64%
    08:00 -1°C° 0 mm 2 mps 710 mmHg 59%
    09:00 +1°C° 0 mm 3 mps 710 mmHg 55%
    10:00 +4°C° 0 mm 3 mps 711 mmHg 50%
    11:00 +5°C° 0 mm 3 mps 710 mmHg 50%
    12:00 +7°C° 0 mm 3 mps 710 mmHg 49%
    13:00 +8°C° 0 mm 3 mps 709 mmHg 48%
    14:00 +8°C° 0 mm 3 mps 709 mmHg 50%
    15:00 +8°C° 0 mm 2 mps 708 mmHg 52%
    16:00 +7°C° 0 mm 2 mps 708 mmHg 54%
    17:00 +6°C° 0 mm 2 mps 708 mmHg 59%
    18:00 +4°C° 0 mm 2 mps 708 mmHg 64%
    19:00 +3°C° 0 mm 1 mps 708 mmHg 70%
    20:00 +3°C° 0 mm 1 mps 707 mmHg 71%
    21:00 +2°C° 0 mm 1 mps 707 mmHg 72%
    22:00 +2°C° 0 mm 1 mps 707 mmHg 73%
    23:00 +2°C° 0 mm 1 mps 706 mmHg 72%

    27 February, Wednesday

    Time Temperature Precipitation Wind Pressure Humidity
    00:00 +2°C° 0 mm 1 mps 706 mmHg 71%
    01:00 +2°C° 0 mm 1 mps 705 mmHg 70%
    02:00 +2°C° 0 mm 1 mps 705 mmHg 69%
    03:00 +2°C° 0 mm 1 mps 704 mmHg 68%
    04:00 +2°C° 0 mm 1 mps 704 mmHg 67%
    05:00 +2°C° 0 mm 1 mps 704 mmHg 68%
    06:00 +2°C° 0 mm 2 mps 704 mmHg 69%
    07:00 +2°C° 0 mm 2 mps 704 mmHg 70%
    08:00 +1°C° 0 mm 4 mps 704 mmHg 63%
    09:00 +3°C° 0 mm 6 mps 705 mmHg 55%
    10:00 +4°C° 0 mm 7 mps 705 mmHg 47%
    11:00 +5°C° 0 mm 7 mps 705 mmHg 46%
    12:00 +5°C° 0 mm 7 mps 704 mmHg 46%
    13:00 +5°C° 0 mm 7 mps 704 mmHg 46%
    14:00 +5°C° 0 mm 7 mps 704 mmHg 49%
    15:00 +4°C° 0 mm 7 mps 704 mmHg 52%
    16:00 +3°C° 0 mm 7 mps 704 mmHg 55%
    17:00 +2°C° 0 mm 5 mps 705 mmHg 62%
    18:00 0°C° 0 mm 4 mps 705 mmHg 69%
    19:00 0°C° 0 mm 3 mps 706 mmHg 76%
    20:00 -1°C° 0 mm 2 mps 706 mmHg 78%
    21:00 -1°C° 0 mm 2 mps 706 mmHg 80%
    22:00 +1°C° 0 mm 1 mps 706 mmHg 82%
    23:00 +1°C° 0 mm 1 mps 707 mmHg 82%
    Show more